sat.trackr.live / text

‹ back to catalog

STARLINK-4536

NORAD 53783 · 2022-111L

PAYLOAD ACTIVE UNKNOWN

§ Identity

Operator
Country
US
Launch date
2022-09-11
Launch site
AFETR
Launch vehicle
Mass (kg)
RCS (m²)

Purposes: comms

External: N2YO · Heavens-Above · Gunter

§ Orbital elements

Epoch: 2026-05-25T02:33:21.791808Z

Period
95.44 min
Inclination
53.2133°
Eccentricity
0.0001304
Mean motion
15.08830896 rev/d
Perigee alt
538.9 km
Apogee alt
540.7 km
Semi-major
6,917.9 km
B*
9.4089e-5
RAAN
290.9897°
Arg perigee
90.0306°
Mean anomaly
270.0836°
Rev number
20,523

§ Raw data

STARLINK-45361 53783U 22111L   26145.10650222  .00001209  00000+0  94089-4 0  99942 53783  53.2133 290.9897 0001304  90.0306 270.0836 15.08830896205231

JSON: /api/v1/satellites/53783 · /tle

For live sub-satellite position, see the globe view (requires WebGL).

§ Visibility from observer

Set your observer location to see the next 7 days of passes ≥ 10°. The values pass through the URL so the page stays shareable.

No JS? Fill the form by hand. The geolocation button needs JavaScript.